Hourly Data Report for July 11, 2021

KITCHENER/WATERLOO
ONTARIO
Current Station Operator: NAVCAN

43°27'39.000" N
80°22'43.000" W
321.60 m
6144239
71368
YKF

Download Data

Hourly Data (July 2021)
Hourly Data Report for July 11, 2021
TIME
LST
Temp Definition
°C
Dew Point Definition
°C
Rel Hum Definition
%
Precip. Amount Definition
mm

Wind Dir Definition
10's deg

Wind Spd Definition
km/h
Visibility Definition
km
Stn Press Definition
kPa
Hmdx Definition


Wind Chill Definition


Weather Definition


00:00 13.2 12.4 95 0.0   0 16.1 98.02     LegendNANA
01:00 12.8 12.2 96 0.0   0 16.1 98.02     LegendNANA
02:00 12.8 12.0 95 0.0   0 16.1 97.99     LegendNANA
03:00 13.3 11.6 89 0.0 LegendMM 4 16.1 97.94     LegendNANA
04:00 13.6 11.5 87 0.0 LegendMM 4 16.1 97.92     LegendNANA
05:00 13.8 12.1 89 0.0 5 4 16.1 97.93     LegendNANA
06:00 14.8 13.0 89 0.0 5 4 16.1 97.94     LegendNANA
07:00 15.9 14.1 89 0.0 4 8 16.1 97.94     LegendNANA
08:00 16.5 14.8 89 0.0 5 11 16.1 97.94     LegendNANA
09:00 17.2 15.3 89 0.0 4 8 16.1 97.91     LegendNANA
10:00 17.5 16.0 91 0.2 11 11 16.1 97.97     Rain
11:00 17.7 16.8 94 0.8 11 9 14.5 98.03     Rain
12:00 18.5 17.6 94 0.5 9 13 16.1 97.98     Rain
13:00 19.0 17.7 92 0.5 5 11 16.1 98.00     Rain
14:00 18.8 17.3 91 0.5 5 13 16.1 97.94     Rain
15:00 18.8 17.7 93 0.0 5 11 16.1 97.92     Rain
16:00 18.6 17.5 93 0.5 5 15 16.1 97.91     Rain
17:00 18.8 17.1 89 0.2 9 17 16.1 97.88     Rain
18:00 18.7 16.4 86 0.0 5 8 16.1 97.87     LegendNANA
19:00 18.5 16.9 90 0.0 5 11 16.1 97.87     LegendNANA
20:00 17.8 17.0 95 0.0 8 8 16.1 97.92     LegendNANA
21:00 17.7 16.7 94 0.0 6 11 16.1 97.96     LegendNANA
22:00 17.8 15.3 85 0.0 4 8 16.1 97.97     LegendNANA
23:00 17.3 14.8 85 0.0 5 9 16.1 97.97     LegendNANA

Notes on Data Quality.

Legend

  • E = Estimated
  • M = Missing
  • NA = Not Available*
  • [empty] = Indicates an unobserved value
Date modified: